ORBVIEW 2 (SEASTAR) (24883 NORAD) Tracking and Keplerian Element Data

This shows tracking and keplerian element data for the satellite.

Feedback or suggestion? Click here.




ElementValue
Catalog24883
NameORBVIEW 2 (SEASTAR)
Epoch Orbit10791
Epoch Day195.89821681
Epoch Year2018
RAAN304.8325
Inclination98.5642
Eccentricity0.0002987
Argument of Perigee48.068
Mean Anonmoly312.0759
Mean Motion14.33460554
Decay Rate3.7E-07
L11 24883U 97037A 18195.89821681 .00000037 00000-0 29147-4 0 9995
L22 24883 98.5642 304.8325 0002987 48.0680 312.0759 14.33460554107918

Live tracking and technical data element details for ORBVIEW 2 (SEASTAR) (NORAD 24883). ORBVIEW 2 (SEASTAR) can be tracked NOW for your location showing map with azimuth and elevation plus other details from your city location.

Track the satellite on the map from your city or location and see movement details for azimuth, elevation, latitude, longitude, range, height, and movement on the map or in text.







IsCatalogInMostPopularTable: catalog: 24883, numindb: 32
Update: records affected: 1



GetName: 24883 ORBVIEW 2 (SEASTAR)

Hit Count: updated at: Sun, 15 Jul 2018 23:04:22 GMT